Flag for Netherlands Weather past 2 weeks in Kralendijk (Bonaire), Netherlands

Now
82 °F

Warm.


Feels Like: 89 °F
Forecast: 82 / 89 °F
Wind: 18 mph from Northeast

Location: Flamingo Airport - Bonaire

Current Time: Sep 3, 2014 at 12:40:04 AM

Latest Report: Sep 3, 2014 at 12:00 AM


Visibility: N/A

Pressure: 29.89 "Hg

Humidity: 79%

Dew point: 75 °F

Location of Kralendijk (Bonaire)Location

Historic Weather in Kralendijk (Bonaire) — Graph

°F

Kralendijk (Bonaire) temperature yesterday

Maximum temperature yesterday: 90 °F (at 2:00 PM)
Minimum temperature yesterday: 81 °F (at 12:55 AM)
Average temperature yesterday: 84 °F

Past Weeks' High & Low Weather Summary

 TemperatureHumidityPressure
High91 °F (Aug 22, 1:00 PM)94% (Aug 28, 7:00 AM)30.01 "Hg (Aug 28, 7:00 AM)
Low79 °F (Aug 19, 5:55 AM)55% (Aug 21, 1:00 PM)29.74 "Hg (Aug 22, 3:00 PM)
Average85 °F76%29.87 "Hg
* Reported Aug 18 10:00 PM — Sep 2 10:00 PM, Kralendijk (Bonaire), Weather by CustomWeather, © 2014

Note: Actual official high and low records may vary slightly from our data, if they occured in-between our weather recording intervals... More about our weather records

Advertising

Kralendijk (Bonaire) weather history for previous 24 hours

 ConditionsComfort  
Time TempWeatherWind HumidityBarometerVisibility
10:00 PM
Sep 2
84 °FWarm.18 mph74%29.89 "HgN/A
9:00 PM84 °FWarm.18 mph79%29.86 "HgN/A
8:00 PM84 °FPassing clouds.18 mph79%29.83 "HgN/A
7:00 PM84 °FPassing clouds.21 mph74%29.83 "HgN/A
6:00 PM86 °FWarm.21 mph70%29.83 "HgN/A
5:00 PM88 °FWarm.21 mph66%29.80 "HgN/A
4:00 PM88 °FScattered clouds.21 mph70%29.80 "HgN/A
3:00 PM86 °FScattered clouds.18 mph75%29.83 "HgN/A
2:00 PM90 °FHot.21 mph67%29.86 "HgN/A
1:00 PM88 °FWarm.20 mph66%29.89 "HgN/A
12:00 PMN/A18 mphN/AN/AN/A
11:00 AM86 °FScattered clouds.20 mph75%29.92 "HgN/A
10:00 AM84 °FScattered showers. Partly sunny.16 mph84%29.92 "HgN/A
8:00 AM84 °FScattered clouds.15 mph79%29.89 "HgN/A
7:00 AM82 °FScattered clouds.14 mph79%29.89 "HgN/A
6:00 AM82 °FWarm.16 mph79%29.86 "HgN/A
4:55 AM81 °FPassing clouds.15 mph84%29.86 "HgN/A
4:00 AM81 °FWarm.16 mph84%29.86 "HgN/A
2:55 AM81 °FWarm.17 mph89%29.86 "HgN/A
1:55 AM81 °FPassing clouds.15 mph89%29.89 "HgN/A
12:55 AM81 °FWarm.13 mph89%29.89 "HgN/A
12:00 AM82 °FWarm.16 mph84%29.92 "HgN/A
Weather by CustomWeather, © 2014

See weather overviewHow to use our weather pages